Madison, MN

3:29 PM CST on December 08, 2019 (GMT -0600)
Madison-Lac Qui Parle County

Weather History for KDXX - October, 2019

Change the Weather History Date:

Saturday, October 26, 2019

  Actual Average (KAQP) Record (KAQP)
Temperature  
Mean Temperature 54 °F -  
Max Temperature 66 °F 49 °F 68 °F (2000)
Min Temperature 41 °F 31 °F 19 °F (2001)
Degree Days  
Heating Degree Days 12    
Growing Degree Days 4 (Base 50)    
Moisture  
Dew Point 33 °F    
Average Humidity 53    
Maximum Humidity 76    
Minimum Humidity 26    
Precipitation  
Precipitation 0.00 in - - ()
Sea Level Pressure  
Sea Level Pressure 29.71 in    
Wind  
Wind Speed 10 mph (South)    
Max Wind Speed 23 mph    
Max Gust Speed 32 mph    
Visibility 10 miles    
Events      
Averages and records for this station are not official NWS values.
T = Trace of Precipitation, MM = Missing Value Source: NWS Daily Summary

Daily Weather History Graph

Daily Weather History Graph

Search for Another Location

Airport or City:

Astronomy

Oct. 26, 2019 Rise Set
Actual Time 7:54 AM CDT 6:21 PM CDT
Civil Twilight 7:24 AM CDT 6:52 PM CDT
Nautical Twilight 6:50 AM CDT 7:26 PM CDT
Astronomical Twilight 6:16 AM CDT 8:00 PM CDT
Moon 5:43 AM CDT (10/26) 6:04 PM CDT (10/26)
Length of Visible Light 11h 27m
Length of Day
10h 27m
Waning Crescent, 3% of the Moon is Illuminated
Oct 26
Waning Crescent
Oct 27
New
Nov 4
First Quarter
Nov 12
Full
Nov 19
Last Quarter

Hourly Weather History & Observations

Time (CDT) Temp. Windchill Dew Point Humidity Pressure Visibility Wind Dir Wind Speed Gust Speed Precip Events Conditions
12:19 AM 42.8 °F 38.6 °F 33.8 °F 70% 29.89 in 10.0 mi South 6.9 mph - N/A   Clear
12:36 AM 44.6 °F 41.4 °F 33.8 °F 66% 29.88 in 10.0 mi South 5.8 mph - N/A   Clear
12:56 AM 42.8 °F 38.6 °F 33.8 °F 70% 29.87 in 10.0 mi South 6.9 mph - N/A   Clear
1:15 AM 42.8 °F 38.6 °F 33.8 °F 70% 29.86 in 10.0 mi SSE 6.9 mph - N/A   Clear
1:16 AM 42.8 °F 38.6 °F 33.8 °F 70% 29.86 in 10.0 mi SSE 6.9 mph - N/A   Clear
1:35 AM 42.8 °F 38.6 °F 33.8 °F 70% 29.85 in 10.0 mi SSE 6.9 mph - N/A   Clear
1:57 AM 42.8 °F 38.6 °F 33.8 °F 70% 29.84 in 10.0 mi South 6.9 mph - N/A   Clear
2:15 AM 42.8 °F 40.1 °F 33.8 °F 70% 29.84 in 10.0 mi South 4.6 mph - N/A   Clear
2:35 AM 42.8 °F 38.6 °F 33.8 °F 70% 29.83 in 10.0 mi South 6.9 mph - N/A   Clear
2:36 AM 42.8 °F 38.6 °F 33.8 °F 70% 29.83 in 10.0 mi South 6.9 mph - N/A   Clear
2:55 AM 42.8 °F 40.1 °F 32.0 °F 66% 29.82 in 10.0 mi South 4.6 mph - N/A   Clear
2:56 AM 42.8 °F 40.1 °F 33.8 °F 70% 29.82 in 10.0 mi SSE 4.6 mph - N/A   Clear
3:18 AM 44.6 °F 39.2 °F 32.0 °F 61% 29.81 in 10.0 mi South 10.4 mph - N/A   Clear
3:35 AM 46.4 °F 41.5 °F 32.0 °F 57% 29.80 in 10.0 mi SSW 10.4 mph 17.3 mph N/A   Clear
3:55 AM 44.6 °F 39.7 °F 32.0 °F 61% 29.80 in 10.0 mi South 9.2 mph - N/A   Clear
3:56 AM 44.6 °F 39.2 °F 32.0 °F 61% 29.79 in 10.0 mi South 10.4 mph - N/A   Clear
4:38 AM 42.8 °F 38.0 °F 32.0 °F 66% 29.78 in 10.0 mi South 8.1 mph - N/A   Clear
4:56 AM 42.8 °F 37.5 °F 32.0 °F 66% 29.77 in 10.0 mi South 9.2 mph - N/A   Clear
5:15 AM 42.8 °F 37.0 °F 32.0 °F 66% 29.76 in 10.0 mi South 10.4 mph - N/A   Clear
5:16 AM 42.8 °F 37.0 °F 32.0 °F 66% 29.76 in 10.0 mi South 10.4 mph - N/A   Clear
5:35 AM 42.8 °F 36.6 °F 32.0 °F 66% 29.75 in 10.0 mi South 11.5 mph 16.1 mph N/A   Clear
5:36 AM 42.8 °F 36.6 °F 32.0 °F 66% 29.75 in 10.0 mi South 11.5 mph 16.1 mph N/A   Clear
5:59 AM 42.8 °F 37.5 °F 30.2 °F 61% 29.74 in 10.0 mi South 9.2 mph - N/A   Clear
6:16 AM 42.8 °F 37.5 °F 30.2 °F 61% 29.73 in 10.0 mi SSE 9.2 mph - N/A   Clear
6:36 AM 42.8 °F 38.0 °F 30.2 °F 61% 29.73 in 10.0 mi South 8.1 mph - N/A   Clear
6:55 AM 42.8 °F 37.0 °F 30.2 °F 61% 29.72 in 10.0 mi South 10.4 mph - N/A   Clear
6:56 AM 42.8 °F 37.5 °F 30.2 °F 61% 29.72 in 10.0 mi South 9.2 mph - N/A   Clear
7:18 AM 42.8 °F 37.5 °F 30.2 °F 61% 29.71 in 10.0 mi South 9.2 mph - N/A   Clear
7:37 AM 41.0 °F 34.7 °F 30.2 °F 65% 29.70 in 10.0 mi South 10.4 mph - N/A   Clear
7:56 AM 42.8 °F 37.0 °F 30.2 °F 61% 29.69 in 10.0 mi South 10.4 mph - N/A   Clear
8:15 AM 42.8 °F 37.5 °F 30.2 °F 61% 29.69 in 10.0 mi SSE 9.2 mph - N/A   Clear
8:16 AM 42.8 °F 37.0 °F 30.2 °F 61% 29.69 in 10.0 mi South 10.4 mph - N/A   Clear
8:35 AM 42.8 °F 36.6 °F 30.2 °F 61% 29.68 in 10.0 mi South 11.5 mph - N/A   Clear
8:57 AM 44.6 °F 38.8 °F 30.2 °F 57% 29.68 in 10.0 mi South 11.5 mph 17.3 mph N/A   Clear
9:35 AM 46.4 °F 40.1 °F 30.2 °F 53% 29.68 in 10.0 mi South 15.0 mph - N/A   Clear
9:36 AM 46.4 °F 40.1 °F 30.2 °F 53% 29.68 in 10.0 mi South 15.0 mph - N/A   Clear
9:55 AM 48.2 °F - 30.2 °F 50% 29.67 in 10.0 mi South 13.8 mph 20.7 mph N/A   Clear
9:56 AM 48.2 °F - 30.2 °F 50% 29.67 in 10.0 mi South 13.8 mph 20.7 mph N/A   Clear
10:19 AM 51.8 °F - 30.2 °F 44% 29.68 in 10.0 mi South 11.5 mph - N/A   Clear
10:36 AM 51.8 °F - 30.2 °F 44% 29.67 in 10.0 mi South 12.7 mph 17.3 mph N/A   Clear
10:56 AM 53.6 °F - 30.2 °F 41% 29.67 in 10.0 mi South 16.1 mph 19.6 mph N/A   Clear
11:15 AM 55.4 °F - 30.2 °F 38% 29.66 in 10.0 mi SSE 13.8 mph 18.4 mph N/A   Clear
11:16 AM 55.4 °F - 30.2 °F 38% 29.66 in 10.0 mi SSE 13.8 mph 18.4 mph N/A   Clear
11:35 AM 55.4 °F - 30.2 °F 38% 29.66 in 10.0 mi South 10.4 mph 16.1 mph N/A   Clear
11:39 AM 57.2 °F - 30.2 °F 36% 29.66 in 10.0 mi South 13.8 mph 18.4 mph N/A   Clear
11:58 AM 57.2 °F - 30.2 °F 36% 29.66 in 10.0 mi South 12.7 mph - N/A   Clear
12:15 PM 59.0 °F - 30.2 °F 34% 29.65 in 10.0 mi South 13.8 mph - N/A   Clear
12:35 PM 60.8 °F - 30.2 °F 31% 29.64 in 10.0 mi SSE 15.0 mph 19.6 mph N/A   Clear
12:36 PM 60.8 °F - 30.2 °F 31% 29.64 in 10.0 mi South 15.0 mph 19.6 mph N/A   Clear
12:55 PM 60.8 °F - 30.2 °F 31% 29.64 in 10.0 mi South 15.0 mph 18.4 mph N/A   Clear
12:56 PM 60.8 °F - 30.2 °F 31% 29.64 in 10.0 mi South 13.8 mph 18.4 mph N/A   Clear
1:18 PM 62.6 °F - 30.2 °F 30% 29.62 in 10.0 mi South 12.7 mph 21.9 mph N/A   Clear
1:37 PM 64.4 °F - 30.2 °F 28% 29.63 in 10.0 mi South 11.5 mph - N/A   Clear
1:56 PM 64.4 °F - 30.2 °F 28% 29.62 in 10.0 mi South 10.4 mph - N/A   Clear
2:15 PM 64.4 °F - 30.2 °F 28% 29.61 in 10.0 mi South 11.5 mph - N/A   Clear
2:16 PM 64.4 °F - 30.2 °F 28% 29.61 in 10.0 mi SSE 11.5 mph - N/A   Clear
2:35 PM 66.2 °F - 30.2 °F 26% 29.61 in 7.0 mi South 11.5 mph 18.4 mph N/A   Clear
2:57 PM 66.2 °F - 30.2 °F 26% 29.60 in 10.0 mi South 10.4 mph - N/A   Clear
3:15 PM 66.2 °F - 30.2 °F 26% 29.61 in 10.0 mi South 11.5 mph 16.1 mph N/A   Clear
3:35 PM 66.2 °F - 30.2 °F 26% 29.60 in 10.0 mi SSE 11.5 mph - N/A   Clear
3:55 PM 66.2 °F - 30.2 °F 26% 29.60 in 10.0 mi South 12.7 mph - N/A   Clear
3:56 PM 66.2 °F - 30.2 °F 26% 29.60 in 10.0 mi South 12.7 mph - N/A   Clear
4:19 PM 66.2 °F - 30.2 °F 26% 29.60 in 10.0 mi South 12.7 mph - N/A   Clear
4:36 PM 64.4 °F - 30.2 °F 28% 29.61 in 10.0 mi South 10.4 mph - N/A   Clear
4:56 PM 64.4 °F - 30.2 °F 28% 29.61 in 10.0 mi South 6.9 mph - N/A   Clear
5:15 PM 64.4 °F - 32.0 °F 30% 29.61 in 10.0 mi South 6.9 mph - N/A   Clear
5:16 PM 64.4 °F - 32.0 °F 30% 29.61 in 10.0 mi South 5.8 mph - N/A   Clear
5:35 PM 62.6 °F - 33.8 °F 34% 29.62 in 10.0 mi SSW 4.6 mph - N/A   Clear
5:39 PM 62.6 °F - 33.8 °F 34% 29.62 in 10.0 mi South 4.6 mph - N/A   Clear
5:58 PM 60.8 °F - 33.8 °F 36% 29.63 in 10.0 mi South 3.5 mph - N/A   Clear
6:16 PM 57.2 °F - 37.4 °F 48% 29.64 in 10.0 mi NNW 9.2 mph - N/A   Clear
6:35 PM 55.4 °F - 37.4 °F 51% 29.65 in 10.0 mi Calm Calm - N/A   Clear
6:36 PM 55.4 °F - 37.4 °F 51% 29.65 in 10.0 mi Calm Calm - N/A   Clear
6:55 PM 53.6 °F - 37.4 °F 54% 29.66 in 10.0 mi NNW 10.4 mph - N/A   Clear
6:56 PM 53.6 °F - 37.4 °F 54% 29.66 in 10.0 mi NNW 12.7 mph - N/A   Clear
7:19 PM 53.6 °F - 39.2 °F 58% 29.67 in 10.0 mi NNW 11.5 mph - N/A   Clear
7:36 PM 51.8 °F - 39.2 °F 62% 29.68 in 10.0 mi NNW 9.2 mph - N/A   Clear
7:55 PM 50.0 °F - 39.2 °F 66% 29.69 in 10.0 mi NNW 12.7 mph 16.1 mph N/A   Clear
7:56 PM 50.0 °F - 39.2 °F 66% 29.69 in 10.0 mi NNW 13.8 mph - N/A   Clear
8:15 PM 50.0 °F - 41.0 °F 71% 29.69 in 10.0 mi NNW 17.3 mph 25.3 mph N/A   Clear
8:16 PM 50.0 °F - 41.0 °F 71% 29.69 in 10.0 mi NNW 16.1 mph 25.3 mph N/A   Clear
8:35 PM 48.2 °F - 39.2 °F 71% 29.70 in 10.0 mi North 18.4 mph 26.5 mph N/A   Clear
8:57 PM 48.2 °F - 39.2 °F 71% 29.71 in 10.0 mi NNW 17.3 mph 23.0 mph N/A   Clear
9:15 PM 46.4 °F 39.2 °F 39.2 °F 76% 29.72 in 10.0 mi NNW 18.4 mph 24.2 mph N/A   Clear
9:35 PM 46.4 °F 39.8 °F 39.2 °F 76% 29.73 in 10.0 mi NW 16.1 mph 26.5 mph N/A   Clear
9:55 PM 46.4 °F 39.0 °F 39.2 °F 76% 29.74 in 10.0 mi NNW 19.6 mph 26.5 mph N/A   Clear
9:56 PM 46.4 °F 38.7 °F 39.2 °F 76% 29.74 in 10.0 mi NNW 20.7 mph 26.5 mph N/A   Clear
10:18 PM 44.6 °F 36.9 °F 37.4 °F 76% 29.75 in 10.0 mi NNW 18.4 mph 21.9 mph N/A   Clear
10:37 PM 44.6 °F 35.9 °F 37.4 °F 76% 29.76 in 10.0 mi NNW 23.0 mph 31.1 mph N/A   Clear
10:56 PM 44.6 °F 36.6 °F 35.6 °F 71% 29.77 in 10.0 mi NNW 19.6 mph 27.6 mph N/A   Clear
11:15 PM 44.6 °F 36.1 °F 35.6 °F 71% 29.77 in 10.0 mi NNW 21.9 mph 29.9 mph N/A   Mostly Cloudy
11:35 PM 44.6 °F 36.4 °F 35.6 °F 71% 29.77 in 10.0 mi NNW 20.7 mph 32.2 mph N/A   Overcast
11:39 PM 44.6 °F 36.4 °F 35.6 °F 71% 29.77 in 10.0 mi NNW 20.7 mph 28.8 mph N/A   Overcast
11:57 PM 44.6 °F 36.4 °F 35.6 °F 71% 29.76 in 10.0 mi NNW 20.7 mph 24.2 mph N/A   Overcast